AirNav   ProFlight Series 2 Aviation Headset
 
 782 users online  

31PN Control Dynamics Heliport
Warminster, Pennsylvania, USA

GOING TO WARMINSTER?


FAA INFORMATION EFFECTIVE 18 JUNE 2020

Location

FAA Identifier: 31PN
Lat/Long: 40-12-33.0000N 075-04-53.0000W
40-12.550000N 075-04.883333W
40.2091667,-75.0813889
(estimated)
Elevation: 282 ft. / 86 m (estimated)
Time zone: UTC -4 (UTC -5 during Standard Time)
Zip code: 18974

Heliport Operations

Heliport use: Private use. Permission required prior to landing
Activation date: 04/2009
Control tower: no
ARTCC: NEW YORK CENTER
FSS: WILLIAMSPORT FLIGHT SERVICE STATION
Attendance: MON-FRI 0800-1700
Wind indicator: yes
Segmented circle: no

Heliport Communications

UNICOM: 123.075
WX ASOS at DYL (8 nm N): 118.875 (215-345-0392)
WX ASOS at PNE (8 nm SE): 121.15 (215-677-0146)
WX AWOS-3 at LOM (9 nm SW): 118.925 (215-646-1068)
WX ASOS at TTN (13 nm E): 126.775 (609-538-8690)
WX AWOS-3 at CKZ (14 nm NW): 126.325 (215-257-7291)
WX ASOS at VAY (19 nm SE): 119.325 (609-267-1176)
WX AWOS-3 at UKT (19 nm NW): 119.475 (215-538-7610)

Nearby radio navigation aids

VOR radial/distance  VOR name  Freq  Var
ARDr262/8.4YARDLEY VOR/DME108.2010W
PTWr101/22.0POTTSTOWN VORTAC116.5009W
GXUr310/25.3MC GUIRE VORTAC110.6012W
RBVr281/26.9ROBBINSVILLE VORTAC113.8010W
SBJr225/27.3SOLBERG VOR/DME112.9010W
MXEr066/32.2MODENA VORTAC113.2009W
FJCr161/35.4ALLENTOWN VORTAC117.5010W
ETXr138/35.4EAST TEXAS VOR/DME110.2009W
OODr027/35.9WOODSTOWN VORTAC112.8010W
BWZr210/37.3BROADWAY VOR/DME114.2011W
CYNr318/38.0COYLE VORTAC113.4010W
DQOr047/40.0DUPONT VORTAC114.0010W

 
NDB name  Hdg/Dist  Freq  Var  ID
AMBLER074/10.627512WING .. -. --.
LAKEHURST297/35.639611WNEL -. . .-..

Heliport Services

Runway Information

Helipad H1

Dimensions: 61 x 61 ft. / 19 x 19 m
Surface: turf
Runway edge lights: FLD
Traffic pattern: leftleft

Heliport Ownership and Management from official FAA records

Ownership: Privately-owned
Owner: CONTROL DYNAMICS CORP
960 LOUIS DR
WARMINSTER, PA 18974
Phone 215-956-0700
Manager: HARVEY SHUHART
960 LOUIS DR
WARMINSTER, PA 18974
Phone 215-956-0700

Heliport Operational Statistics

Aircraft based on the field: 1
Helicopters: 1
    

Additional Remarks

FOR CD CTC PHILADELPHIA APCH AT 800-354-9884.

Instrument Procedures

There are no published instrument procedures at 31PN.

Some nearby airports with instrument procedures:

KDYL - Doylestown Airport (8 nm N)
KPNE - Northeast Philadelphia Airport (8 nm SE)
KLOM - Wings Field Airport (9 nm SW)
KTTN - Trenton Mercer Airport (13 nm E)
KCKZ - Pennridge Airport (14 nm NW)
N10 - Perkiomen Valley Airport (16 nm W)
KVAY - South Jersey Regional Airport (19 nm SE)
KUKT - Quakertown Airport (19 nm NW)
 
Loc | Ops | Rwys | IFR | FBO | Links
Com | Nav | Svcs | Stats | Notes
Aerial photo
No photo
 
Sectional chart

 
Airport distance calculator
Flying to Control Dynamics Heliport? Find the distance to fly.

From to 31PN

Sunrise and sunset
Times for 05-Jul-2020
 Local
(UTC-4)
 Zulu
(UTC)
Morning civil twilight05:0609:06
Sunrise05:3809:38
Sunset20:3200:32
Evening civil twilight21:0401:04

Current date and time
Zulu (UTC)  06-Jul-2020 02:55:01
Local (UTC-4)  05-Jul-2020 22:55:01
 
METAR
KDYL 
8nm N 
060154Z AUTO 00000KT 10SM CLR 25/16 A2997 RMK AO2 SLP141 T02500156
KPNE 
8nm S 
060154Z AUTO 25009KT 10SM CLR 30/19 A2997 RMK AO2 SLP147 T03000189
KLOM 
9nm SW 
060235Z AUTO 22004KT 10SM CLR 26/20 A2999 RMK AO2 T02590196
KTTN 
13nm E 
ASOS 133.70 609-538-8690
060153Z 00000KT 10SM CLR 27/16 A2995 RMK AO2 SLP134 T02720161
KCKZ 
14nm NW 
060235Z AUTO 00000KT 10SM CLR 20/18 A2999 RMK AO2
KUKT 
19nm NW 
060240Z AUTO 00000KT 10SM CLR 22/19 A2999 RMK A01
TAF
KPNE 
8nm S 
051721Z 0518/0618 29008KT P6SM SCT060 FM060000 25004KT P6SM SCT250 FM060400 VRB03KT P6SM SCT250 FM061400 24004KT P6SM SCT030 FM061700 23006KT P6SM BKN060
KTTN 
13nm E 
051721Z 0518/0618 30008KT P6SM SCT250 FM060200 VRB03KT P6SM SCT250 FM061400 VRB04KT P6SM SCT030 FM061700 23005KT P6SM BKN060
NOTAMs
Click for the latest NOTAMs
NOTAMs are issued by the DoD/FAA and will open in a separate window not controlled by AirNav.

 

 
 

Would you like to see your business listed on this page?

 If your business provides an interesting product or service to pilots, flight crews, aircraft, or users of the Control Dynamics Heliport, you should consider listing it here.  To start the listing process, click on the button below
 
Add a business
 

Other Pages about Control Dynamics Heliport

Update a link
 
Copyright © AirNav, LLC. All rights reserved. Privacy Policy  Contact